EW0734 Weather Reports


Display with metric or nautical units.
time (UTC)temp
F
wind
direction
speed
MPH
gust
MPH
rain 1hr
in
rain 24hr
in
rain mn
in
humidity
%
barometer
mb
20260903212028 89 0.0 0.0 0.00 0.00 0.00 74 1012.5
20260903211033 89 0.0 0.0 0.00 0.00 0.00 73 1012.7
20260903210027 89 0.0 0.0 0.00 0.00 0.00 73 1012.8
20260903205028 89 0.0 0.0 0.00 0.00 0.00 71 1012.8
20260903204028 90 0.0 0.0 0.00 0.00 0.00 70 1012.9
20260903203028 91 0.0 0.0 0.00 0.00 0.00 70 1012.9
20260903202029 90 0.0 0.0 0.00 0.00 0.00 71 1013.2
20260903201050 89 0.0 0.0 0.00 0.00 0.00 72 1013.3
20260903200050 89 0.0 0.0 0.00 0.00 0.00 75 1013.5
20260903195030 89 0.0 0.0 0.00 0.00 0.00 75 1013.6
20260903194030 89 0.0 0.0 0.00 0.00 0.00 76 1013.6
20260903193030 88 0.0 0.0 0.00 0.00 0.00 78 1013.8
20260903192049 88 0.0 0.0 0.00 0.00 0.00 78 1014.0
20260903191030 88 0.0 0.0 0.00 0.00 0.00 79 1013.9
20260903190030 88 0.0 0.0 0.00 0.00 0.00 79 1013.9
20260903185030 88 0.0 0.0 0.00 0.00 0.00 79 1014.1
20260903184030 88 0.0 0.0 0.00 0.00 0.00 78 1014.3
20260903183050 87 0.0 0.0 0.00 0.00 0.00 76 1014.3
20260903182029 88 0.0 0.0 0.00 0.00 0.00 78 1014.6
20260903181030 88 0.0 0.0 0.00 0.00 0.00 77 1014.7
20260903180029 88 0.0 0.0 0.00 0.00 0.00 76 1014.9
20260903175030 88 0.0 0.0 0.00 0.00 0.00 77 1014.9
20260903174530 88 0.0 0.0 0.00 0.00 0.00 76 1014.9
20260903173529 88 0.0 0.0 0.00 0.00 0.00 75 1015.1
20260903172530 88 0.0 0.0 0.00 0.00 0.00 76 1015.4
20260903171530 87 0.0 0.0 0.00 0.00 0.00 79 1015.6
20260903170529 86 0.0 0.0 0.00 0.00 0.00 80 1015.8
20260903165529 85 0.0 0.0 0.00 0.00 0.00 81 1015.9
20260903164530 85 0.0 0.0 0.00 0.00 0.00 80 1015.7
20260903163529 85 0.0 0.0 0.00 0.00 0.00 80 1015.7
20260903162529 85 0.0 0.0 0.00 0.00 0.00 80 1015.9
20260903161529 84 0.0 0.0 0.00 0.00 0.00 85 1016.2
20260903160528 83 0.0 0.0 0.00 0.00 0.00 84 1016.2
20260903155529 82 0.0 0.0 0.00 0.00 0.00 88 1016.2
20260903154530 80 0.0 0.0 0.00 0.00 0.00 91 1016.4
20260903153529 78 0.0 0.0 0.00 0.00 0.00 91 1016.6
20260903152529 78 0.0 0.0 0.00 0.00 0.00 92 1016.6
20260903151529 78 0.0 0.0 0.00 0.00 0.00 92 1016.5
20260903150528 77 0.0 0.0 0.00 0.00 0.00 92 1016.3
20260903145529 77 0.0 0.0 0.00 0.00 0.00 91 1016.3
20260903144529 77 0.0 0.0 0.00 0.00 0.00 91 1016.1
20260903143529 76 0.0 0.0 0.00 0.00 0.00 89 1016.0
20260903142529 76 0.0 0.0 0.00 0.00 0.00 90 1016.2
20260903141530 76 0.0 0.0 0.00 0.00 0.00 89 1016.2
20260903140530 76 0.0 0.0 0.00 0.00 0.00 88 1016.2
20260903135630 75 0.0 0.0 0.00 0.00 0.00 86 1016.2
20260903134529 75 0.0 0.0 0.00 0.00 0.00 86 1016.1
20260903133529 75 0.0 0.0 0.00 0.00 0.00 83 1016.0
20260903132529 75 0.0 0.0 0.00 0.00 0.00 80 1016.3
20260903131529 75 0.0 0.0 0.00 0.00 0.00 81 1016.4
20260903130547 75 0.0 0.0 0.00 0.00 0.00 81 1016.6
20260903125529 74 0.0 0.0 0.00 0.00 0.00 70 1016.7
20260903124529 74 0.0 0.0 0.00 0.00 0.00 65 1016.7
20260903123529 74 0.0 0.0 0.00 0.00 0.00 67 1016.7
20260903122529 74 0.0 0.0 0.00 0.00 0.00 65 1016.5
20260903121549 74 0.0 0.0 0.00 0.00 0.00 53 1016.3
20260903120529 74 0.0 0.0 0.00 0.00 0.00 52 1016.1
20260903115529 74 0.0 0.0 0.00 0.00 0.00 51 1015.9
20260903114529 73 0.0 0.0 0.00 0.00 0.00 52 1015.9
20260903114129 0 0.0 0.0 0.00 0.00 0.00
20260903113527 0 0.0 0.0 0.00 0.00 0.00
20260903112528 0 0.0 0.0 0.00 0.00 0.00
20260903112031 0 0.0 0.0 0.00 0.00 0.00
20260903111626 0 0.0 0.0 0.00 0.00 0.00
20260903111027 0 0.0 0.0 0.00 0.00 0.00
20260903110029 0 0.0 0.0 0.00 0.00 0.00
20260903105547 0 0.0 0.0 0.00 0.00 0.00
20260903105122 0 0.0 0.0 0.00 0.00 0.00
20260903104528 0 0.0 0.0 0.00 0.00 0.00
20260903103527 0 0.0 0.0 0.00 0.00 0.00
20260903103045 0 0.0 0.0 0.00 0.00 0.00
20260903102620 0 0.0 0.0 0.00 0.00 0.00
20260903102027 0 0.0 0.0 0.00 0.00 0.00
20260903101027 0 0.0 0.0 0.00 0.00 0.00
20260903100525 0 0.0 0.0 0.00 0.00 0.00
20260903100120 0 0.0 0.0 0.00 0.00 0.00
20260903095528 0 0.0 0.0 0.00 0.00 0.00
20260903094547 0 0.0 0.0 0.00 0.00 0.00
20260903094027 0 0.0 0.0 0.00 0.00 0.00
20260903093622 0 0.0 0.0 0.00 0.00 0.00
20260903093026 0 0.0 0.0 0.00 0.00 0.00
20260903092027 0 0.0 0.0 0.00 0.00 0.00
20260903091606 0 0.0 0.0 0.00 0.00 0.00
20260903091122 0 0.0 0.0 0.00 0.00 0.00
20260903090527 0 0.0 0.0 0.00 0.00 0.00
20260903085527 0 0.0 0.0 0.00 0.00 0.00
20260903085021 0 0.0 0.0 0.00 0.00 0.00
20260903084617 0 0.0 0.0 0.00 0.00 0.00
20260903084027 0 0.0 0.0 0.00 0.00 0.00
20260903083032 0 0.0 0.0 0.00 0.00 0.00
20260903082545 0 0.0 0.0 0.00 0.00 0.00
20260903082037 0 0.0 0.0 0.00 0.00 0.00
20260903081527 0 0.0 0.0 0.00 0.00 0.00
20260903080526 0 0.0 0.0 0.00 0.00 0.00
20260903080027 0 0.0 0.0 0.00 0.00 0.00
20260903075621 0 0.0 0.0 0.00 0.00 0.00
20260903075026 0 0.0 0.0 0.00 0.00 0.00
20260903074026 0 0.0 0.0 0.00 0.00 0.00
20260903073532 0 0.0 0.0 0.00 0.00 0.00
20260903073009 0 0.0 0.0 0.00 0.00 0.00
20260903072532 0 0.0 0.0 0.00 0.00 0.00
20260903071552 0 0.0 0.0 0.00 0.00 0.00
20260903071034 0 0.0 0.0 0.00 0.00 0.00
20260903070509 0 0.0 0.0 0.00 0.00 0.00
20260903070026 0 0.0 0.0 0.00 0.00 0.00
20260903065027 0 0.0 0.0 0.00 0.00 0.00
20260903064533 0 0.0 0.0 0.00 0.00 0.00
20260903064125 0 0.0 0.0 0.00 0.00 0.00
20260903063526 0 0.0 0.0 0.00 0.00 0.00
20260903062526 0 0.0 0.0 0.00 0.00 0.00
20260903062104 0 0.0 0.0 0.00 0.00 0.00
20260903061617 0 0.0 0.0 0.00 0.00 0.00
20260903061026 0 0.0 0.0 0.00 0.00 0.00
20260903060027 0 0.0 0.0 0.00 0.00 0.00
20260903055537 0 0.0 0.0 0.00 0.00 0.00 78
20260903055006 71 0.0 0.0 0.00 0.00 0.00 78 1015.6
20260903054528 71 0.0 0.0 0.00 0.00 0.00 77 1015.7
20260903053529 71 0.0 0.0 0.00 0.00 0.00 82 1015.7
20260903052528 71 0.0 0.0 0.00 0.00 0.00 84 1015.7
20260903051529 71 0.0 0.0 0.00 0.00 0.00 85 1015.8
20260903050528 72 0.0 0.0 0.00 0.00 0.00 83 1015.9
20260903045529 72 0.0 0.0 0.00 0.00 0.00 83 1015.9
20260903044528 72 0.0 0.0 0.00 0.00 0.00 85 1015.9
20260903043528 72 0.0 0.0 0.00 0.00 0.00 85 1015.9
20260903042548 72 0.0 0.0 0.00 0.00 0.00 86 1016.0
20260903041529 72 0.0 0.0 0.00 0.00 0.00 87 1015.9
20260903040538 72 0.0 0.0 0.00 0.00 0.00 88 1015.8
20260903035528 72 0.0 0.0 0.00 0.00 0.00 89 1015.9
20260903034529 72 0.0 0.0 0.00 0.00 0.00 90 1015.8
20260903033550 72 0.0 0.0 0.00 0.00 0.00 90 1015.7
20260903032528 73 0.0 0.0 0.00 0.00 0.00 90 1015.6
20260903031528 73 0.0 0.0 0.00 0.00 0.00 91 1015.4
20260903030529 73 0.0 0.0 0.00 0.00 0.00 91 1015.4
20260903025528 73 0.0 0.0 0.00 0.00 0.00 91 1015.3
20260903024528 73 0.0 0.0 0.00 0.00 0.00 92 1015.3
20260903023527 73 0.0 0.0 0.00 0.00 0.00 92 1015.1
20260903022528 73 0.0 0.0 0.00 0.00 0.00 93 1015.2
20260903021528 73 0.0 0.0 0.00 0.00 0.00 93 1015.1
20260903020529 73 0.0 0.0 0.00 0.00 0.00 92 1015.5
20260903015548 73 0.0 0.0 0.00 0.00 0.00 92 1015.6
20260903014528 74 0.0 0.0 0.00 0.00 0.00 92 1015.8
20260903013527 74 0.0 0.0 0.00 0.00 0.00 92 1015.8
20260903012548 74 0.0 0.0 0.00 0.00 0.00 92 1015.6
20260903011528 74 0.0 0.0 0.00 0.00 0.00 92 1015.6
20260903010548 74 0.0 0.0 0.00 0.00 0.00 91 1015.9
20260903005529 74 0.0 0.0 0.00 0.00 0.00 91 1016.0
20260903004529 74 0.0 0.0 0.00 0.00 0.00 91 1015.8
20260903003528 74 0.0 0.0 0.00 0.00 0.00 90 1015.8
20260903002528 75 0.0 0.0 0.00 0.00 0.00 90 1015.5
20260903001528 75 0.0 0.0 0.00 0.00 0.00 90 1015.5
20260903000528 75 0.0 0.0 0.00 0.00 0.00 90 1015.6
20260902235548 75 0.0 0.0 0.00 0.00 0.00 90 1015.6
20260902234528 75 0.0 0.0 0.00 0.00 0.00 89 1015.2
20260902233607 76 0.0 0.0 0.00 0.00 0.00 89 1015.4
20260902232529 76 0.0 0.0 0.00 0.00 0.00 88 1015.8
20260902231528 76 0.0 0.0 0.00 0.00 0.00 88 1015.9
20260902230528 77 0.0 0.0 0.00 0.00 0.00 88 1016.1
20260902225528 77 0.0 0.0 0.00 0.00 0.00 87 1016.3
20260902224528 77 0.0 0.0 0.00 0.00 0.00 87 1016.2
20260902223527 77 0.0 0.0 0.00 0.00 0.00 87 1016.1
20260902222527 77 0.0 0.0 0.00 0.00 0.00 87 1016.4
20260902221528 77 0.0 0.0 0.00 0.00 0.00 87 1016.5
20260902220528 77 0.0 0.0 0.00 0.00 0.00 86 1015.7
20260902215527 77 0.0 0.0 0.00 0.00 0.00 86 1015.6
20260902214547 77 0.0 0.0 0.00 0.00 0.00 86 1015.8
20260902213527 77 0.0 0.0 0.00 0.00 0.00 85 1015.5